Regional Weather Roundup
Issued by NWS

Home | Current Version | Previous Version | Graphics & Text | Print | Product List | Glossary On
Versions: 1 2 3 4 5 6 7 8 9 10 11 12 13 14 15 16 17 18 19 20 21 22 23 24 25 26 27 28 29 30 31 32 33 34 35 36 37 38 39 40 41 42 43 44 45 46 47 48 49 50
029
ASUS43 KLOT 122203
RWRIL

ILLINOIS REGIONAL WEATHER ROUNDUP
NATIONAL WEATHER SERVICE CHICAGO/ROMEOVILLE IL
400 PM CST FRI FEB 12 2016

NOTE: "FAIR" INDICATES FEW OR NO CLOUDS BELOW 12,000 FEET WITH NO
SIGNIFICANT WEATHER AND/OR OBSTRUCTIONS TO VISIBILITY.

* THESE STATIONS ARE NOT UNDER NWS QUALITY CONTROL. THEY ALSO MAY NOT
  REPORT WEATHER SUCH AS PRECIPITATION OR FOG.

ILZ001-002-007-009-015-016-024-122300-
NORTHWEST ILLINOIS

CITY           SKY/WX    TMP DP  RH WIND       PRES   REMARKS
MOLINE         SUNNY     21  -1  38 NW20G35   30.35R WCI   6
STERLING*      SUNNY     21   3  45 W22G28    30.26R WCI   5
$$

ILZ003-004-008-010-011-017-018-122300-
NORTH CENTRAL ILLINOIS

CITY           SKY/WX    TMP DP  RH WIND       PRES   REMARKS
ROCKFORD       MOSUNNY   21   1  41 NW25G36   30.26R WCI   4
FREEPORT*      MOSUNNY   19   3  50 NW20G29   30.28R WCI   2
DE KALB*       PTSUNNY   20   4  50 NW21G33   30.21R WCI   3
$$

ILZ005-006-012>014-019>023-122300-
NORTHEAST ILLINOIS

CITY           SKY/WX    TMP DP  RH WIND       PRES   REMARKS
CHICAGO-OHARE  MOSUNNY   21   1  41 NW22G31   30.19R WCI   5
CHICAGO-MIDWAY MOSUNNY   23   0  36 NW23G29   30.20R WCI   7
AURORA         PTSUNNY   23   6  48 NW25      30.21R WCI   7
LANSING*       MOSUNNY   23   1  38 NW17G25   30.19R WCI   9
WAUKEGAN       MOSUNNY   18  -2  41 NW15G29   30.18R WCI   4
DUPAGE AIRPORT PTSUNNY   20   2  45 NW20G31   30.20R WCI   4
WHEELING       PTSUNNY   20   1  43 NW20G26   30.21R WCI   4
NORTHERLY ISL    N/A     21  -1  38 NW16        N/A  WCI   7
$$

LMZ740>746-122300-
SOUTHERN LAKE MICHIGAN

STATION/POSITION SKY/WX   TEMP    WIND        PRES    VSBY  WAVE
                          AIR SEA DIR/SP/G                  HT/PER
                          (F)     (DEG/KT/KT) (MB)    (MI)  (FT/S)
HARRISON CRIB              22     310/ 28/ 31   N/A
BURNHAM HARBOR             22     290/ 11/ 22   N/A
CALUMET HARBOR             22     290/ 12/ 18 1020.8R
BURNS HARBOR               22     310/ 22     1021.3R
MICHIGAN CITY              21     270/ 27/ 30   N/A
$$

ILZ025>027-034>036-040-047-049-050-058-095>099-122300-
WEST-CENTRAL ILLINOIS

CITY           SKY/WX    TMP DP  RH WIND       PRES   REMARKS
QUINCY         MOSUNNY   24  11  57 NW22G29   30.38R WCI   9
MACOMB*        SUNNY     26  10  51 NW26G32   30.37R WCI  10
$$

ILZ028>032-037-038-041>044-048-051>054-059>061-122300-
CENTRAL ILLINOIS

CITY           SKY/WX    TMP DP  RH WIND       PRES   REMARKS
BLOOMINGTON    SUNNY     26   7  44 NW26G32   30.25R WCI  10
DECATUR        PTSUNNY   28  12  51 NW21G28   30.27R WCI  15
PEORIA         SUNNY     26   3  37 NW14G31   30.30R WCI  14
LINCOLN*       MOSUNNY   29  12  48 NW10G21   30.28R WCI  20
SPRINGFIELD    PTSUNNY   28  14  55 W21G28    30.31R WCI  15
TAYLORVILLE    NOT AVBL
$$

ILZ033-039-045-046-055>057-062-063-122300-
EAST-CENTRAL ILLINOIS

CITY           SKY/WX    TMP DP  RH WIND       PRES   REMARKS
CHAMPAIGN      PTSUNNY   27  14  58 NW20G26   30.23R WCI  13
MATTOON        CLOUDY    26  15  63 NW24G31   30.25R WCI  11
$$

ILZ079-100>102-122300-
SOUTHWEST ILLINOIS

CITY           SKY/WX    TMP DP  RH WIND       PRES   REMARKS
ALTON          PTSUNNY   28  18  64 NW14G23   30.35R WCI  17
BELLEVILLE     MOSUNNY   32  17  53 NW18G29   30.33R WCI  20
CAHOKIA*       MOSUNNY   32  17  54 NW18      30.36R WCI  20
SPARTA*        PTSUNNY   32  22  68 NW14G21   30.33R WCI  22
$$

ILZ064>066-069>071-074>076-080>082-084>086-088>090-092>094-122300-
SOUTH-CENTRAL ILLINOIS

CITY           SKY/WX    TMP DP  RH WIND       PRES   REMARKS
CARBONDALE     MOSUNNY   35  20  54 NW18G24   30.32R WCI  24
MARION         PTSUNNY   34  23  64 NW15      30.32R WCI  24
MT. VERNON     CLOUDY    30  18  59 NW10G18   30.32R WCI  21
CENTRALIA*     CLOUDY    30  21  70 NW18G26   30.31R WCI  17
SALEM*         CLOUDY    30  19  61 NW20G26   30.30R WCI  18
$$

ILZ067-068-072-073-078-083-087-091-122300-
SOUTHEAST ILLINOIS

CITY           SKY/WX    TMP DP  RH WIND       PRES   REMARKS
LAWRENCEVILLE  CLOUDY    29  18  63 NW24G30   30.26R WCI  15
HARRISBURG*    CLOUDY    33  24  71 NW13G22   30.31R WCI  23
$$

ABBREVIATIONS USED IN REMARKS
   TC - TEMPERATURE IN CELSIUS
  WCI - WIND CHILL INDEX
   HX - HEAT INDEX
  VSB - VISIBILITY
$$





USA.gov is the U.S. government's official web portal to all federal, state and local government web resources and services.